User: anonymous
Location: Unspecified
(0.0000°N, 0.0000°E)
Time: 05:41:12
(UTC+02:00)
Language:

AO-7 - Orbit

View from above orbital plane
View from above orbital plane
View from above satellite
View from above satellite

Ground track
Ground track

The orbit data is extracted from the following two-line orbital elements,

1 07530U 74089B   14292.48217914 -.00000049  00000-0 -38200-4 0   990
2 07530 101.4884 270.2882 0012307 053.3081 060.1633 12.53608290827096
Epoch (UTC): 19 October 2014 11:34:20
Eccentricity: 0.0012307
inclination: 101.4884°
perigee height: 1440 km
apogee height: 1459 km
right ascension of ascending node: 270.2882°
argument of perigee: 53.3081°
revolutions per day: 12.53608290
mean anomaly at epoch: 60.1633°
orbit number at epoch: 82709

The dashed part of the orbit path shows where the satellite is in the earth's shadow,  

DLR